SCX3024 KAFW-KPIT

Flight info

Callsign SCX3024
Flight time 1h 58m
Altitude 37000
Route KUSSO2 BSKAT LIT CKV HYK JPU FEWGA7
Aircraft B738/M-SDE2E3FGHIRWXY/LB1

Departure

Time 2026-05-07 19:59
Airport Perot Field/Fort Worth Alliance Airport (KAFW)

Arrival

Time 2026-05-07 21:58
Airport Pittsburgh International Airport (KPIT)
Time Latitude Longitude Altitude Speed Heading
2026-05-07 19:28 32.98024 -97.32156 682 ft 0 kts 261°
2026-05-07 19:51 32.98025 -97.32151 681 ft 2 kts 261°
2026-05-07 19:51 32.98026 -97.32140 681 ft 2 kts 261°
2026-05-07 19:52 32.98031 -97.32124 681 ft 2 kts 238°
2026-05-07 19:52 32.98040 -97.32109 682 ft 2 kts 221°
2026-05-07 19:52 32.98053 -97.32100 682 ft 2 kts 203°
2026-05-07 19:52 32.98067 -97.32095 682 ft 2 kts 185°
2026-05-07 19:53 32.98078 -97.32095 682 ft 0 kts 172°
2026-05-07 19:53 32.98085 -97.32096 682 ft 0 kts 169°
2026-05-07 19:56 32.98084 -97.32096 682 ft 0 kts 169°
2026-05-07 19:56 32.98052 -97.32089 682 ft 8 kts 170°
2026-05-07 19:56 32.97991 -97.32076 680 ft 9 kts 161°
2026-05-07 19:56 32.97969 -97.32016 680 ft 8 kts 86°
2026-05-07 19:57 32.97946 -97.31960 679 ft 9 kts 153°
2026-05-07 19:57 32.97861 -97.31937 676 ft 15 kts 169°
2026-05-07 19:57 32.97753 -97.31914 673 ft 14 kts 170°
2026-05-07 19:57 32.97670 -97.31896 671 ft 9 kts 166°
2026-05-07 19:58 32.97642 -97.31842 670 ft 8 kts 85°
2026-05-07 19:58 32.97660 -97.31775 670 ft 8 kts 46°
2026-05-07 19:58 32.97721 -97.31773 671 ft 9 kts 349°
2026-05-07 19:58 32.97894 -97.31811 677 ft 53 kts 349°
2026-05-07 19:59 32.98455 -97.31924 692 ft 109 kts 351°
2026-05-07 19:59 32.99379 -97.32111 713 ft 157 kts 350°
2026-05-07 19:59 33.00523 -97.32353 1122 ft 167 kts 352°
2026-05-07 19:59 33.01667 -97.32594 1770 ft 167 kts 352°
2026-05-07 20:00 33.02806 -97.32857 2283 ft 175 kts 352°
2026-05-07 20:00 33.04060 -97.32838 2724 ft 187 kts 12°
2026-05-07 20:00 33.05376 -97.32498 3164 ft 200 kts 18°
2026-05-07 20:00 33.06552 -97.31548 3593 ft 214 kts 54°
2026-05-07 20:01 33.06960 -97.29820 3959 ft 235 kts 93°
2026-05-07 20:01 33.06526 -97.27869 4372 ft 253 kts 109°
2026-05-07 20:01 33.05865 -97.25848 4818 ft 269 kts 110°
2026-05-07 20:01 33.05174 -97.23736 5376 ft 279 kts 110°
2026-05-07 20:02 33.04472 -97.21554 6020 ft 286 kts 110°
2026-05-07 20:02 33.03758 -97.19340 6660 ft 293 kts 111°
2026-05-07 20:02 33.03025 -97.17070 7387 ft 297 kts 111°
2026-05-07 20:02 33.02270 -97.14745 8049 ft 304 kts 112°
2026-05-07 20:03 33.01511 -97.12411 8761 ft 308 kts 112°
2026-05-07 20:03 33.00733 -97.10014 9476 ft 314 kts 113°
2026-05-07 20:03 32.99936 -97.07598 10177 ft 319 kts 113°
2026-05-07 20:03 32.99115 -97.05061 10623 ft 336 kts 113°
2026-05-07 20:04 32.98244 -97.02445 11088 ft 350 kts 113°
2026-05-07 20:04 32.97335 -96.99643 11479 ft 368 kts 113°
2026-05-07 20:04 32.96406 -96.96765 11889 ft 383 kts 114°
2026-05-07 20:04 32.95434 -96.93800 12500 ft 392 kts 114°
2026-05-07 20:05 32.94443 -96.90753 13179 ft 398 kts 114°
2026-05-07 20:05 32.93433 -96.87650 13882 ft 404 kts 114°
2026-05-07 20:05 32.92423 -96.84551 14658 ft 408 kts 114°
2026-05-07 20:05 32.91386 -96.81380 15379 ft 414 kts 114°
2026-05-07 20:06 32.90335 -96.78173 16122 ft 418 kts 114°
2026-05-07 20:06 32.89286 -96.74976 16842 ft 422 kts 115°
2026-05-07 20:06 32.88203 -96.71686 17483 ft 429 kts 115°
2026-05-07 20:06 32.87124 -96.68408 18125 ft 434 kts 115°
2026-05-07 20:07 32.86018 -96.65051 18731 ft 440 kts 114°
2026-05-07 20:07 32.84958 -96.61607 19330 ft 448 kts 111°
2026-05-07 20:07 32.84150 -96.57999 19930 ft 456 kts 104°
2026-05-07 20:07 32.83656 -96.54243 20506 ft 463 kts 98°
2026-05-07 20:08 32.83366 -96.50474 21053 ft 469 kts 95°
2026-05-07 20:08 32.83264 -96.46536 21571 ft 476 kts 88°
2026-05-07 20:08 32.83623 -96.42660 22098 ft 480 kts 78°
2026-05-07 20:08 32.84492 -96.38826 22564 ft 484 kts 68°
2026-05-07 20:09 32.85861 -96.35173 23039 ft 486 kts 57°
2026-05-07 20:09 32.87706 -96.31790 23532 ft 485 kts 48°
2026-05-07 20:09 32.89916 -96.28798 23972 ft 484 kts 39°
2026-05-07 20:10 32.95262 -96.24119 24860 ft 476 kts 20°
2026-05-07 20:10 32.98242 -96.22335 25256 ft 483 kts 21°
2026-05-07 20:10 33.01108 -96.20111 25642 ft 498 kts 31°
2026-05-07 20:10 33.03724 -96.17339 26092 ft 510 kts 40°
2026-05-07 20:11 33.06014 -96.14092 26484 ft 520 kts 51°
2026-05-07 20:11 33.07976 -96.10429 26910 ft 528 kts 58°
2026-05-07 20:11 33.09658 -96.06538 27292 ft 534 kts 63°
2026-05-07 20:11 33.11177 -96.02473 27669 ft 539 kts 66°
2026-05-07 20:12 33.12600 -95.98339 28030 ft 544 kts 68°
2026-05-07 20:12 33.13992 -95.94147 28439 ft 547 kts 68°
2026-05-07 20:12 33.15387 -95.89912 28809 ft 552 kts 68°
2026-05-07 20:12 33.16801 -95.85647 29133 ft 557 kts 68°
2026-05-07 20:13 33.18240 -95.81366 29532 ft 560 kts 68°
2026-05-07 20:13 33.19703 -95.77049 29943 ft 563 kts 68°
2026-05-07 20:13 33.21184 -95.72716 30353 ft 566 kts 67°
2026-05-07 20:13 33.22679 -95.68385 30949 ft 564 kts 67°
2026-05-07 20:14 33.24155 -95.64123 31575 ft 561 kts 67°
2026-05-07 20:14 33.25647 -95.59816 32107 ft 561 kts 66°
2026-05-07 20:14 33.27137 -95.55517 32603 ft 561 kts 66°
2026-05-07 20:14 33.28621 -95.51228 33130 ft 560 kts 66°
2026-05-07 20:15 33.30104 -95.46941 33626 ft 560 kts 66°
2026-05-07 20:15 33.31581 -95.42657 34074 ft 560 kts 67°
2026-05-07 20:15 33.33059 -95.38363 34577 ft 559 kts 66°
2026-05-07 20:15 33.34546 -95.34039 35084 ft 558 kts 67°
2026-05-07 20:16 33.36001 -95.29806 35469 ft 558 kts 67°
2026-05-07 20:16 33.37471 -95.25523 35855 ft 558 kts 66°
2026-05-07 20:16 33.38956 -95.21191 36229 ft 559 kts 66°
2026-05-07 20:16 33.40408 -95.16947 36618 ft 558 kts 66°
2026-05-07 20:17 33.41880 -95.12633 36963 ft 558 kts 66°
2026-05-07 20:17 33.44845 -95.03937 37039 ft 561 kts 66°
2026-05-07 20:18 33.47853 -94.95084 37039 ft 557 kts 66°
2026-05-07 20:18 33.50810 -94.86370 37038 ft 560 kts 66°
2026-05-07 20:19 33.53749 -94.77695 37037 ft 560 kts 66°
2026-05-07 20:19 33.56694 -94.68968 37038 ft 559 kts 66°
2026-05-07 20:20 33.59599 -94.60344 37035 ft 560 kts 66°
2026-05-07 20:20 33.62504 -94.51686 37034 ft 560 kts 66°
2026-05-07 20:21 33.65414 -94.42983 37028 ft 562 kts 65°
2026-05-07 20:21 33.68302 -94.34330 37027 ft 562 kts 66°
2026-05-07 20:22 33.71272 -94.25661 37035 ft 562 kts 64°
2026-05-07 20:22 33.74793 -94.17319 37031 ft 559 kts 58°
2026-05-07 20:23 33.78670 -94.09273 37025 ft 559 kts 55°
2026-05-07 20:23 33.82630 -94.01267 37024 ft 560 kts 55°
2026-05-07 20:24 33.86585 -93.93165 37023 ft 561 kts 56°
2026-05-07 20:24 33.90479 -93.85047 37026 ft 563 kts 56°
2026-05-07 20:25 33.94343 -93.76911 37027 ft 562 kts 56°
2026-05-07 20:25 33.98193 -93.68765 37028 ft 563 kts 56°
2026-05-07 20:26 34.02045 -93.60602 37030 ft 562 kts 56°
2026-05-07 20:26 34.05963 -93.52421 37033 ft 561 kts 54°
2026-05-07 20:27 34.10187 -93.44624 37033 ft 559 kts 50°
2026-05-07 20:27 34.14613 -93.36910 37034 ft 558 kts 49°
2026-05-07 20:28 34.19009 -93.29202 37036 ft 559 kts 50°
2026-05-07 20:28 34.23354 -93.21447 37044 ft 560 kts 51°
2026-05-07 20:29 34.27691 -93.13594 37044 ft 560 kts 51°
2026-05-07 20:29 34.31972 -93.05791 37046 ft 561 kts 51°
2026-05-07 20:30 34.36263 -92.97954 37043 ft 561 kts 50°
2026-05-07 20:30 34.40589 -92.90037 37042 ft 562 kts 51°
2026-05-07 20:31 34.44852 -92.82216 37040 ft 559 kts 50°
2026-05-07 20:31 34.49156 -92.74316 37035 ft 563 kts 50°
2026-05-07 20:32 34.53430 -92.66454 37032 ft 560 kts 50°
2026-05-07 20:32 34.57716 -92.58553 37042 ft 560 kts 50°
2026-05-07 20:33 34.61959 -92.50710 37047 ft 562 kts 50°
2026-05-07 20:33 34.66246 -92.42768 37048 ft 560 kts 50°
2026-05-07 20:34 34.70502 -92.34860 37050 ft 560 kts 50°
2026-05-07 20:34 34.74752 -92.26953 37051 ft 562 kts 50°
2026-05-07 20:35 34.79009 -92.19015 37050 ft 562 kts 51°
2026-05-07 20:35 34.83096 -92.10853 37053 ft 566 kts 56°
2026-05-07 20:36 34.86660 -92.02329 37053 ft 569 kts 59°
2026-05-07 20:36 34.90085 -91.93607 37046 ft 571 kts 60°
2026-05-07 20:37 34.93483 -91.84943 37035 ft 569 kts 59°
2026-05-07 20:37 34.96950 -91.76243 37033 ft 570 kts 59°
2026-05-07 20:38 35.00435 -91.67606 37036 ft 570 kts 59°
2026-05-07 20:38 35.03950 -91.58925 37038 ft 569 kts 58°
2026-05-07 20:39 35.07443 -91.50288 37034 ft 571 kts 58°
2026-05-07 20:39 35.10931 -91.41626 37031 ft 570 kts 58°
2026-05-07 20:40 35.14421 -91.32933 37029 ft 572 kts 59°
2026-05-07 20:40 35.17949 -91.24131 37032 ft 574 kts 59°
2026-05-07 20:41 35.21433 -91.15406 37032 ft 571 kts 59°
2026-05-07 20:41 35.24896 -91.06705 37033 ft 572 kts 58°
2026-05-07 20:42 35.28361 -90.97974 37037 ft 573 kts 59°
2026-05-07 20:42 35.31835 -90.89206 37040 ft 572 kts 58°
2026-05-07 20:43 35.35289 -90.80463 37036 ft 573 kts 58°
2026-05-07 20:43 35.38751 -90.71665 37034 ft 572 kts 59°
2026-05-07 20:44 35.42202 -90.62882 37033 ft 572 kts 58°
2026-05-07 20:44 35.45646 -90.54097 37032 ft 575 kts 59°
2026-05-07 20:45 35.49083 -90.45303 37031 ft 572 kts 58°
2026-05-07 20:45 35.52497 -90.36540 37032 ft 574 kts 59°
2026-05-07 20:46 35.55933 -90.27692 37034 ft 574 kts 59°
2026-05-07 20:46 35.59363 -90.18828 37033 ft 574 kts 59°
2026-05-07 20:47 35.62779 -90.09982 37032 ft 575 kts 59°
2026-05-07 20:47 35.66187 -90.01147 37035 ft 576 kts 59°
2026-05-07 20:48 35.69609 -89.92256 37035 ft 575 kts 59°
2026-05-07 20:48 35.73027 -89.83340 37036 ft 576 kts 59°
2026-05-07 20:49 35.76434 -89.74428 37036 ft 577 kts 59°
2026-05-07 20:49 35.79823 -89.65538 37037 ft 576 kts 58°
2026-05-07 20:50 35.83223 -89.56586 37034 ft 578 kts 58°
2026-05-07 20:50 35.86596 -89.47684 37033 ft 576 kts 58°
2026-05-07 20:51 35.89972 -89.38763 37032 ft 576 kts 59°
2026-05-07 20:51 35.93362 -89.29779 37032 ft 579 kts 59°
2026-05-07 20:52 35.96728 -89.20817 37032 ft 578 kts 59°
2026-05-07 20:52 36.00100 -89.11809 37032 ft 579 kts 59°
2026-05-07 20:53 36.03464 -89.02807 37033 ft 577 kts 59°
2026-05-07 20:53 36.06817 -88.93814 37032 ft 580 kts 60°
2026-05-07 20:54 36.10176 -88.84772 37033 ft 578 kts 60°
2026-05-07 20:54 36.13500 -88.75795 37033 ft 578 kts 59°
2026-05-07 20:55 36.16835 -88.66777 37033 ft 578 kts 59°
2026-05-07 20:55 36.20182 -88.57701 37038 ft 579 kts 59°
2026-05-07 20:56 36.23502 -88.48660 37044 ft 579 kts 59°
2026-05-07 20:56 36.26814 -88.39609 37045 ft 579 kts 59°
2026-05-07 20:57 36.30111 -88.30572 37045 ft 578 kts 60°
2026-05-07 20:57 36.33423 -88.21488 37040 ft 577 kts 59°
2026-05-07 20:58 36.36695 -88.12480 37037 ft 578 kts 59°
2026-05-07 20:58 36.39971 -88.03435 37035 ft 578 kts 60°
2026-05-07 20:59 36.43255 -87.94334 37034 ft 579 kts 59°
2026-05-07 20:59 36.46544 -87.85194 37033 ft 578 kts 59°
2026-05-07 21:00 36.49803 -87.76118 37032 ft 579 kts 60°
2026-05-07 21:00 36.53066 -87.67002 37036 ft 580 kts 60°
2026-05-07 21:01 36.56321 -87.57863 37043 ft 576 kts 59°
2026-05-07 21:01 36.59560 -87.48756 37043 ft 577 kts 59°
2026-05-07 21:02 36.62905 -87.39741 37043 ft 573 kts 56°
2026-05-07 21:02 36.66727 -87.31152 37049 ft 569 kts 51°
2026-05-07 21:03 36.70814 -87.22768 37054 ft 569 kts 50°
2026-05-07 21:03 36.74965 -87.14331 37051 ft 568 kts 50°
2026-05-07 21:04 36.78994 -87.05973 37054 ft 567 kts 51°
2026-05-07 21:04 36.83022 -86.97500 37053 ft 569 kts 51°
2026-05-07 21:05 36.87009 -86.89039 37051 ft 569 kts 51°
2026-05-07 21:05 36.91010 -86.80505 37052 ft 567 kts 51°
2026-05-07 21:06 36.94958 -86.72075 37049 ft 567 kts 51°
2026-05-07 21:06 36.98940 -86.63560 37048 ft 569 kts 51°
2026-05-07 21:07 37.02896 -86.55070 37048 ft 567 kts 51°
2026-05-07 21:07 37.06867 -86.46529 37037 ft 565 kts 51°
2026-05-07 21:08 37.10791 -86.38056 37027 ft 562 kts 51°
2026-05-07 21:08 37.14700 -86.29607 37023 ft 563 kts 52°
2026-05-07 21:09 37.18601 -86.21169 37019 ft 564 kts 52°
2026-05-07 21:09 37.22520 -86.12661 37019 ft 566 kts 52°
2026-05-07 21:10 37.26415 -86.04170 37012 ft 562 kts 52°
2026-05-07 21:10 37.30296 -85.95686 37015 ft 562 kts 52°
2026-05-07 21:11 37.34164 -85.87217 37015 ft 559 kts 52°
2026-05-07 21:11 37.39975 -85.74474 37014 ft 561 kts 52°
2026-05-07 21:12 37.43813 -85.66022 37014 ft 560 kts 53°
2026-05-07 21:12 37.47655 -85.57523 37013 ft 560 kts 52°
2026-05-07 21:13 37.51509 -85.48969 37020 ft 560 kts 53°
2026-05-07 21:13 37.55332 -85.40478 37018 ft 556 kts 53°
2026-05-07 21:14 37.59130 -85.32025 37013 ft 558 kts 53°
2026-05-07 21:14 37.62933 -85.23543 37013 ft 557 kts 53°
2026-05-07 21:15 37.66728 -85.15060 37013 ft 556 kts 53°
2026-05-07 21:15 37.70495 -85.06595 37012 ft 553 kts 54°
2026-05-07 21:16 37.74265 -84.98107 37011 ft 557 kts 53°
2026-05-07 21:16 37.78034 -84.89601 37014 ft 555 kts 53°
2026-05-07 21:17 37.81775 -84.81130 37011 ft 552 kts 53°
2026-05-07 21:17 37.85508 -84.72669 37013 ft 555 kts 54°
2026-05-07 21:18 37.89231 -84.64204 37107 ft 548 kts 54°
2026-05-07 21:18 37.92942 -84.55746 36947 ft 550 kts 54°
2026-05-07 21:19 37.96663 -84.47253 37019 ft 554 kts 53°
2026-05-07 21:19 38.00542 -84.38939 37012 ft 548 kts 50°
2026-05-07 21:20 38.04644 -84.30836 36997 ft 548 kts 49°
2026-05-07 21:20 38.08781 -84.22744 36985 ft 546 kts 50°
2026-05-07 21:21 38.12860 -84.14635 37003 ft 547 kts 50°
2026-05-07 21:21 38.16901 -84.06490 37073 ft 547 kts 51°
2026-05-07 21:22 38.18921 -84.02391 36966 ft 543 kts 50°
2026-05-07 21:22 38.20906 -83.98352 37049 ft 547 kts 51°
2026-05-07 21:22 38.24910 -83.90193 36989 ft 544 kts 51°
2026-05-07 21:23 38.28921 -83.82006 36990 ft 546 kts 51°
2026-05-07 21:23 38.32923 -83.73817 36990 ft 546 kts 51°
2026-05-07 21:24 38.36943 -83.65576 36982 ft 545 kts 51°
2026-05-07 21:24 38.40893 -83.57447 36998 ft 545 kts 51°
2026-05-07 21:25 38.44874 -83.49238 36988 ft 544 kts 50°
2026-05-07 21:25 38.48864 -83.40996 36993 ft 545 kts 51°
2026-05-07 21:26 38.52825 -83.32787 36984 ft 545 kts 51°
2026-05-07 21:26 38.56767 -83.24598 36989 ft 545 kts 51°
2026-05-07 21:27 38.60747 -83.16312 36982 ft 546 kts 51°
2026-05-07 21:27 38.64695 -83.08067 36989 ft 546 kts 51°
2026-05-07 21:28 38.68632 -82.99821 36986 ft 545 kts 52°
2026-05-07 21:28 38.72581 -82.91534 36981 ft 547 kts 52°
2026-05-07 21:29 38.76513 -82.83263 36987 ft 545 kts 52°
2026-05-07 21:29 38.80442 -82.74974 36981 ft 546 kts 51°
2026-05-07 21:30 38.84398 -82.66617 36705 ft 548 kts 51°
2026-05-07 21:30 38.86351 -82.62479 36470 ft 546 kts 52°
2026-05-07 21:30 38.88315 -82.58305 36226 ft 544 kts 51°
2026-05-07 21:31 38.90243 -82.54199 35986 ft 545 kts 51°
2026-05-07 21:31 38.92205 -82.50024 35748 ft 545 kts 51°
2026-05-07 21:31 38.94168 -82.45843 35508 ft 547 kts 51°
2026-05-07 21:31 38.96104 -82.41717 35267 ft 549 kts 51°
2026-05-07 21:32 38.98078 -82.37504 35030 ft 548 kts 51°
2026-05-07 21:32 39.00044 -82.33298 34782 ft 547 kts 51°
2026-05-07 21:32 39.01977 -82.29158 34535 ft 549 kts 51°
2026-05-07 21:32 39.03953 -82.24926 34287 ft 552 kts 52°
2026-05-07 21:33 39.05919 -82.20710 34038 ft 553 kts 52°
2026-05-07 21:33 39.07901 -82.16453 33791 ft 554 kts 51°
2026-05-07 21:33 39.09879 -82.12199 33559 ft 556 kts 52°
2026-05-07 21:33 39.11836 -82.07984 33325 ft 556 kts 52°
2026-05-07 21:34 39.13821 -82.03696 33099 ft 554 kts 52°
2026-05-07 21:34 39.15770 -81.99480 32873 ft 554 kts 52°
2026-05-07 21:34 39.17746 -81.95197 32642 ft 554 kts 52°
2026-05-07 21:34 39.19689 -81.90979 32416 ft 553 kts 52°
2026-05-07 21:35 39.21660 -81.86695 32062 ft 552 kts 52°
2026-05-07 21:35 39.23623 -81.82427 31341 ft 553 kts 53°
2026-05-07 21:35 39.25549 -81.78235 30824 ft 548 kts 52°
2026-05-07 21:35 39.27478 -81.74024 30272 ft 544 kts 53°
2026-05-07 21:36 39.29393 -81.69833 29918 ft 534 kts 52°
2026-05-07 21:36 39.31251 -81.65756 29674 ft 524 kts 53°
2026-05-07 21:36 39.33072 -81.61762 29426 ft 522 kts 53°
2026-05-07 21:36 39.34909 -81.57745 29177 ft 523 kts 52°
2026-05-07 21:37 39.36763 -81.53687 28928 ft 521 kts 52°
2026-05-07 21:37 39.38597 -81.49663 28673 ft 517 kts 53°
2026-05-07 21:37 39.40404 -81.45694 28429 ft 516 kts 52°
2026-05-07 21:37 39.42271 -81.41808 28179 ft 512 kts 50°
2026-05-07 21:38 39.44352 -81.38116 27942 ft 501 kts 41°
2026-05-07 21:38 39.46747 -81.34927 27687 ft 490 kts 33°
2026-05-07 21:38 39.49326 -81.32103 27445 ft 480 kts 28°
2026-05-07 21:38 39.51934 -81.29526 27202 ft 476 kts 26°
2026-05-07 21:39 39.54627 -81.26998 26954 ft 477 kts 26°
2026-05-07 21:39 39.57319 -81.24511 26708 ft 472 kts 25°
2026-05-07 21:39 39.59943 -81.22075 26450 ft 465 kts 26°
2026-05-07 21:39 39.62553 -81.19626 26078 ft 459 kts 26°
2026-05-07 21:40 39.65140 -81.17184 25596 ft 462 kts 26°
2026-05-07 21:40 39.67710 -81.14748 25076 ft 463 kts 27°
2026-05-07 21:40 39.70296 -81.12277 24535 ft 458 kts 27°
2026-05-07 21:40 39.72838 -81.09830 24016 ft 454 kts 27°
2026-05-07 21:41 39.75358 -81.07394 23480 ft 450 kts 27°
2026-05-07 21:41 39.77852 -81.04979 22962 ft 447 kts 28°
2026-05-07 21:41 39.80322 -81.02582 22429 ft 443 kts 28°
2026-05-07 21:41 39.82776 -81.00198 21912 ft 440 kts 28°
2026-05-07 21:42 39.85215 -80.97829 21385 ft 436 kts 28°
2026-05-07 21:42 39.87604 -80.95507 20863 ft 433 kts 29°
2026-05-07 21:42 39.90007 -80.93167 20340 ft 429 kts 29°
2026-05-07 21:42 39.92379 -80.90855 19803 ft 426 kts 29°
2026-05-07 21:43 39.94736 -80.88557 19285 ft 422 kts 30°
2026-05-07 21:43 39.97073 -80.86274 18761 ft 419 kts 30°
2026-05-07 21:43 39.99394 -80.84006 18223 ft 416 kts 30°
2026-05-07 21:43 40.01688 -80.81730 17650 ft 414 kts 32°
2026-05-07 21:44 40.03881 -80.79285 17124 ft 413 kts 37°
2026-05-07 21:44 40.05958 -80.76724 16596 ft 410 kts 39°
2026-05-07 21:44 40.07951 -80.74156 16076 ft 407 kts 40°
2026-05-07 21:44 40.09948 -80.71555 15542 ft 402 kts 40°
2026-05-07 21:45 40.11937 -80.68978 15015 ft 398 kts 40°
2026-05-07 21:45 40.13864 -80.66485 14564 ft 392 kts 40°
2026-05-07 21:45 40.15747 -80.63978 14344 ft 379 kts 41°
2026-05-07 21:45 40.17539 -80.61548 14109 ft 364 kts 41°
2026-05-07 21:46 40.19255 -80.59204 13930 ft 349 kts 41°
2026-05-07 21:46 40.20909 -80.56957 13751 ft 335 kts 41°
2026-05-07 21:46 40.22478 -80.54843 13572 ft 323 kts 41°
2026-05-07 21:46 40.24031 -80.52765 13207 ft 318 kts 40°
2026-05-07 21:47 40.25569 -80.50707 12822 ft 315 kts 41°
2026-05-07 21:47 40.26976 -80.48526 12416 ft 315 kts 51°
2026-05-07 21:47 40.28094 -80.46075 12032 ft 314 kts 59°
2026-05-07 21:47 40.29075 -80.43549 11653 ft 310 kts 61°
2026-05-07 21:48 40.30020 -80.41019 11274 ft 307 kts 61°
2026-05-07 21:48 40.30957 -80.38528 10867 ft 303 kts 60°
2026-05-07 21:48 40.31890 -80.36098 10476 ft 300 kts 59°
2026-05-07 21:48 40.32836 -80.33682 10121 ft 296 kts 60°
2026-05-07 21:49 40.33763 -80.31288 9749 ft 293 kts 63°
2026-05-07 21:49 40.34389 -80.28757 9311 ft 294 kts 80°
2026-05-07 21:49 40.34485 -80.26122 8883 ft 294 kts 91°
2026-05-07 21:49 40.34382 -80.23454 8448 ft 293 kts 93°
2026-05-07 21:50 40.34226 -80.20795 8058 ft 290 kts 98°
2026-05-07 21:50 40.33728 -80.18270 7621 ft 289 kts 114°
2026-05-07 21:50 40.32639 -80.16150 7472 ft 273 kts 136°
2026-05-07 21:50 40.31299 -80.14506 7360 ft 259 kts 142°
2026-05-07 21:51 40.29952 -80.12964 7174 ft 252 kts 141°
2026-05-07 21:51 40.28682 -80.11459 6917 ft 249 kts 140°
2026-05-07 21:51 40.27424 -80.09908 6612 ft 248 kts 139°
2026-05-07 21:51 40.26202 -80.08312 6305 ft 247 kts 131°
2026-05-07 21:52 40.25489 -80.06290 5942 ft 250 kts 95°
2026-05-07 21:52 40.25818 -80.04144 5646 ft 243 kts 57°
2026-05-07 21:52 40.26799 -80.02368 5408 ft 237 kts 45°
2026-05-07 21:52 40.28011 -80.00990 5123 ft 229 kts 20°
2026-05-07 21:53 40.29525 -80.00749 4855 ft 216 kts 343°
2026-05-07 21:53 40.30868 -80.01507 4610 ft 210 kts 323°
2026-05-07 21:53 40.32049 -80.02634 4376 ft 207 kts 322°
2026-05-07 21:53 40.33223 -80.03690 4128 ft 207 kts 324°
2026-05-07 21:54 40.34430 -80.04704 4003 ft 199 kts 325°
2026-05-07 21:54 40.35550 -80.05646 4007 ft 186 kts 324°
2026-05-07 21:54 40.36616 -80.06552 4011 ft 183 kts 322°
2026-05-07 21:54 40.37621 -80.07619 3910 ft 187 kts 315°
2026-05-07 21:55 40.38557 -80.08794 3671 ft 187 kts 314°
2026-05-07 21:55 40.39498 -80.09975 3445 ft 184 kts 315°
2026-05-07 21:55 40.40427 -80.11111 3167 ft 183 kts 316°
2026-05-07 21:55 40.41351 -80.12251 2925 ft 179 kts 314°
2026-05-07 21:56 40.42240 -80.13363 2683 ft 177 kts 314°
2026-05-07 21:56 40.43127 -80.14448 2445 ft 166 kts 315°
2026-05-07 21:56 40.43927 -80.15452 2237 ft 155 kts 315°
2026-05-07 21:56 40.44685 -80.16388 2027 ft 143 kts 316°
2026-05-07 21:57 40.45381 -80.17242 1846 ft 134 kts 313°
2026-05-07 21:57 40.46048 -80.18089 1670 ft 134 kts 315°
2026-05-07 21:57 40.46743 -80.18898 1510 ft 133 kts 315°
2026-05-07 21:57 40.47403 -80.19737 1358 ft 135 kts 313°
2026-05-07 21:58 40.48085 -80.20597 1163 ft 137 kts 315°
2026-05-07 21:58 40.48708 -80.21373 1137 ft 95 kts 316°
2026-05-07 21:58 40.49025 -80.21766 1148 ft 40 kts 316°
2026-05-07 21:58 40.49136 -80.21902 1152 ft 9 kts 330°
2026-05-07 21:59 40.49173 -80.21901 1153 ft 4 kts 31°
2026-05-07 21:59 40.49202 -80.21869 1153 ft 5 kts 47°
2026-05-07 21:59 40.49235 -80.21831 1153 ft 6 kts 14°
2026-05-07 21:59 40.49282 -80.21864 1153 ft 8 kts 319°
2026-05-07 22:00 40.49334 -80.21928 1153 ft 13 kts 315°
2026-05-07 22:00 40.49395 -80.22009 1154 ft 12 kts 316°
2026-05-07 22:00 40.49454 -80.22067 1155 ft 7 kts 347°
2026-05-07 22:00 40.49489 -80.22051 1156 ft 4 kts 23°
2026-05-07 22:01 40.49521 -80.22045 1156 ft 5 kts
2026-05-07 22:01 40.49535 -80.22044 1156 ft 0 kts